Location: Bonnesvalyn
(49.1218°N, 3.3177°E)
Time: 13:08:51
(UTC+00:00)

SKYMED 2 - Visible Passes

Search period start: 25 September 2023 00:00
Search period end: 05 October 2023 00:00
Orbit: 621 x 623 km, 97.9° (Epoch: 24 September)

Date Brightness Start Highest point End Pass type
(mag) Time Alt. Az. Time Alt. Az. Time Alt. Az.
25 Sep 4.6 04:26:13 10° SE 04:30:25 51° ENE 04:34:39 10° N visible
25 Sep 6.5 19:22:31 10° NNW 19:25:33 19° WNW 19:28:34 10° WSW visible
26 Sep 7.1 03:11:40 10° ENE 03:12:59 11° NE 03:14:20 10° NE visible
26 Sep 3.8 04:44:04 10° SSE 04:48:24 77° ENE 04:52:45 10° N visible
26 Sep 3.6 18:03:26 10° NNE 18:07:49 87° ESE 18:12:10 10° SSW visible
26 Sep 6.9 19:41:14 10° NNW 19:43:21 13° WNW 19:45:27 10° W visible
27 Sep 6.7 03:28:10 10° E 03:30:47 16° ENE 03:33:23 10° NNE visible
27 Sep 3.5 05:02:05 10° S 05:06:25 72° WSW 05:10:46 10° NNW visible
27 Sep 4.2 18:21:30 10° N 18:25:49 63° WNW 18:30:05 10° SSW visible
28 Sep 6.2 03:45:15 10° ESE 03:48:35 22° ENE 03:51:56 10° NNE visible
28 Sep 5.0 18:39:39 10° N 18:43:46 42° WNW 18:47:51 10° SW visible
29 Sep 5.6 04:02:38 10° SE 04:06:27 31° ENE 04:10:17 10° N visible
29 Sep 5.7 18:57:53 10° N 19:01:39 29° WNW 19:05:24 10° SW visible
30 Sep 4.8 04:20:14 10° SE 04:24:21 45° ENE 04:28:30 10° N visible
30 Sep 6.3 19:16:15 10° NNW 19:19:30 21° WNW 19:22:45 10° WSW visible
01 Oct 4.0 04:38:00 10° SSE 04:42:18 67° ENE 04:46:38 10° N visible
01 Oct 3.5 17:57:20 10° NNE 18:01:43 77° ESE 18:06:03 10° S visible
01 Oct 6.8 19:34:51 10° NNW 19:37:19 15° WNW 19:39:47 10° W visible
02 Oct 6.8 03:22:27 10° E 03:24:44 14° ENE 03:27:00 10° NNE visible
02 Oct 3.5 04:55:57 10° SSE 05:00:17 82° WSW 05:04:40 10° NNW visible
02 Oct 3.9 18:15:21 10° N 18:19:42 72° WNW 18:24:02 10° SSW visible
02 Oct 7.1 19:54:06 10° NW 19:55:04 11° NW 19:56:02 10° WNW visible
03 Oct 6.4 03:39:24 10° ESE 03:42:31 20° ENE 03:45:40 10° NNE visible
03 Oct 3.7 05:14:05 10° S 05:18:19 54° W 05:22:37 10° NNW visible
03 Oct 4.7 18:33:27 10° N 18:37:39 48° WNW 18:41:50 10° SW visible
04 Oct 5.8 03:56:42 10° ESE 04:00:22 27° ENE 04:04:03 10° N visible
04 Oct 5.4 18:51:39 10° N 18:55:33 33° WNW 18:59:27 10° SW visible
